Content
SEND FEEDBACK

Daily
Averages
Monthly
Summary
United States of America

MONTICELLO, GEORGIA


Home > North America > United States > Georgia
Elevation: 631 feet     Latitude: 33 18N     Longitude: 083 41W

WEATHER
 
SELECT A DAY
Number of Records: 74,807;   Date Range: 9/1/10 - 10/23/13
 
SHARE

PRINT THIS DATA

[ ← Previous Day ]
WEATHER ALMANAC - FEBRUARY 13, 2013
[ Next Day → ]
[ °C ]   °F
Weather ElementAverageHighLow
Temperature48.2 °F55.4 °F (2:15 pm)41 °F (10:55 pm)
Dewpoint14 °F53.6 °F (2:35 pm) (7:00 pm)
Humidity58 %94 % (2:35 pm)47 % (2:55 pm)
Barometer29.82 in29.94 in (10:55 pm)29.75 in (6:35 am)
Wind Speed6.9 mph13.8 mph (3:15 pm)
Wind Gust26.5 mph (2:35 pm)
Weather ElementAverage
Visibility7.7 mi
Wind DirectionS (182.4 °)

Weather ElementTotal
Precipitation---
Heating Degree Days16.8 (Base 65)
Averaged from 70 records on February 13, 2013
WEATHER CONDITIONS BREAKOUT
WIND DIRECTION BREAKOUT
WEATHER BY HOUR - FEBRUARY 13, 2013
[ °C ]   °F
Local TimeTemperatureDewpointHumidityBarometerVisibilityWind DirectionWind SpeedGust SpeedPrecipitationEventsConditions
12:35 AM46.4 °F0.0 °F29.84 in10.0 miEast (80°)6.9 mphOvercast
12:55 AM46.4 °F0.0 °F29.84 in10.0 miENE (70°)5.8 mphThunderstormOvercast
1:15 AM46.4 °F0.0 °F29.84 in10.0 miNE (40°)5.8 mphOvercast
1:35 AM46.4 °F0.0 °F29.84 in10.0 miEast (80°)8.1 mphOvercast
1:55 AM46.4 °F0.0 °F29.83 in5.0 miNE (50°)3.5 mphHaze
2:15 AM46.4 °F0.0 °F29.82 in7.0 miENE (60°)6.9 mphOvercast
2:35 AM44.6 °F0.0 °F29.82 in10.0 miENE (60°)5.8 mphOvercast
2:55 AM46.4 °F0.0 °F29.80 in7.0 miEast (80°)5.8 mphOvercast
3:15 AM46.4 °F0.0 °F29.80 in5.0 miENE (70°)5.8 mphHaze
3:35 AM46.4 °F0.0 °F29.78 in7.0 miEast (90°)5.8 mphOvercast
3:55 AM46.4 °F0.0 °F29.77 in7.0 miEast (80°)6.9 mphOvercast
4:15 AM46.4 °F0.0 °F29.78 in5.0 miEast (80°)8.1 mphHaze
4:35 AM46.4 °F0.0 °F29.77 in5.0 miNE (50°)6.9 mphDrizzle
4:55 AM46.4 °F0.0 °F29.77 in3.0 miEast (80°)5.8 mphDrizzle
5:15 AM46.4 °F0.0 °F29.77 in3.0 miEast (80°)6.9 mphLight Drizzle
5:35 AM46.4 °F0.0 °F29.77 in4.0 miEast (90°)6.9 mphHaze
5:55 AM46.4 °F0.0 °F29.76 in4.0 miEast (80°)6.9 mphHaze
6:15 AM46.4 °F0.0 °F29.76 in3.0 miEast (80°)5.8 mphOvercast
6:35 AM46.4 °F0.0 °F29.75 in4.0 miEast (80°)6.9 mphHaze
6:55 AM46.4 °F0.0 °F29.79 in4.0 miESE (120°)3.5 mphHaze
7:15 AM46.4 °F0.0 °F29.78 in3.0 miCalmDrizzle
7:35 AM46.4 °F0.0 °F29.75 in2.5 miESE (120°)3.5 mphRainLight Rain
7:55 AM46.4 °F0.0 °F29.80 in3.0 miCalmRainLight Rain
8:15 AM46.4 °F0.0 °F29.77 in2.0 miCalmLight Drizzle
8:35 AM46.4 °F0.0 °F29.75 in2.0 miCalmOvercast
8:55 AM46.4 °F0.0 °F29.77 in2.0 miCalmOvercast
9:15 AM46.4 °F0.0 °F29.77 in2.5 miCalmOvercast
9:55 AM48.2 °F0.0 °F29.79 in2.5 miCalmOvercast
10:15 AM48.2 °F0.0 °F29.80 in2.0 miCalmOvercast
10:35 AM50.0 °F0.0 °F29.81 in2.5 miCalmOvercast
10:55 AM50.0 °F0.0 °F29.80 in4.0 miCalmHaze
11:15 AM50.0 °F0.0 °F29.80 in10.0 miWSW (250°)3.5 mphOvercast
11:35 AM51.8 °F0.0 °F29.79 in10.0 miWest (270°)6.9 mphOvercast
11:55 AM51.8 °F0.0 °F29.81 in10.0 miWest (270°)8.1 mphOvercast
12:15 PM51.8 °F0.0 °F29.78 in10.0 miWNW (290°)11.5 mphOvercast
12:35 PM53.6 °F0.0 °F29.79 in10.0 miWest (260°)8.1 mphOvercast
12:55 PM53.6 °F0.0 °F29.78 in10.0 miWSW (250°)6.9 mphMostly Cloudy
1:15 PM53.6 °F0.0 °F29.79 in10.0 miWest (260°)10.4 mph16.1 mphMostly Cloudy
1:35 PM53.6 °F0.0 °F29.78 in10.0 miWSW (250°)5.8 mphOvercast
1:55 PM53.6 °F0.0 °F29.77 in10.0 miWest (260°)8.1 mphMostly Cloudy
2:15 PM55.4 °F0.0 °F29.76 in10.0 miWest (270°)6.9 mphScattered Clouds
2:35 PM55.4 °F53.6 °F94 %29.76 in10.0 miWest (280°)12.7 mph26.5 mphMostly Cloudy
2:55 PM55.4 °F35.6 °F47 %29.76 in10.0 miWest (270°)9.2 mph16.1 mphMostly Cloudy
3:15 PM53.6 °F33.8 °F47 %29.77 in10.0 miWest (280°)13.8 mph20.7 mphOvercast
3:35 PM53.6 °F35.6 °F51 %29.79 in10.0 miWest (280°)9.2 mph16.1 mphOvercast
3:55 PM53.6 °F33.8 °F47 %29.79 in10.0 miWest (280°)12.7 mph19.6 mphOvercast
4:15 PM51.8 °F33.8 °F50 %29.79 in10.0 miWest (280°)12.7 mph20.7 mphOvercast
4:35 PM51.8 °F35.6 °F54 %29.81 in10.0 miWNW (290°)11.5 mph19.6 mphOvercast
4:55 PM51.8 °F33.8 °F50 %29.82 in10.0 miWNW (290°)12.7 mph21.9 mphOvercast
5:15 PM50.0 °F35.6 °F58 %29.83 in10.0 miWNW (300°)12.7 mph20.7 mphOvercast
5:35 PM50.0 °F35.6 °F58 %29.84 in10.0 miWNW (300°)9.2 mphOvercast
5:55 PM50.0 °F35.6 °F58 %29.85 in10.0 miWest (270°)9.2 mphOvercast
6:15 PM50.0 °F33.8 °F54 %29.86 in10.0 miWest (280°)9.2 mphOvercast
6:35 PM50.0 °F33.8 °F54 %29.86 in10.0 miWest (270°)4.6 mphOvercast
6:55 PM50.0 °F33.8 °F54 %29.86 in10.0 miWNW (290°)10.4 mphOvercast
7:15 PM50.0 °F33.8 °F54 %29.87 in10.0 miWest (280°)9.2 mph19.6 mphOvercast
7:35 PM48.2 °F33.8 °F58 %29.87 in10.0 miWNW (290°)10.4 mph20.7 mphOvercast
7:55 PM48.2 °F33.8 °F58 %29.88 in10.0 miWNW (290°)12.7 mph16.1 mphOvercast
8:15 PM48.2 °F33.8 °F58 %29.89 in10.0 miWNW (300°)13.8 mph20.7 mphOvercast
8:35 PM46.4 °F32.0 °F57 %29.90 in10.0 miNNW (330°)13.8 mph20.7 mphMostly Cloudy
8:55 PM46.4 °F30.2 °F53 %29.91 in10.0 miWNW (300°)9.2 mph17.3 mphScattered Clouds
9:15 PM44.6 °F30.2 °F57 %29.91 in10.0 miNW (320°)9.2 mph18.4 mphClear
9:35 PM44.6 °F30.2 °F57 %29.92 in10.0 miNW (310°)8.1 mphClear
9:55 PM44.6 °F30.2 °F57 %29.92 in10.0 miWNW (300°)8.1 mphClear
10:15 PM42.8 °F30.2 °F61 %29.93 in10.0 miWNW (300°)6.9 mphClear
10:35 PM42.8 °F30.2 °F61 %29.93 in10.0 miNW (320°)4.6 mphClear
10:55 PM41.0 °F32.0 °F70 %29.94 in10.0 miWNW (300°)3.5 mphClear
11:15 PM41.0 °F32.0 °F70 %29.94 in10.0 miWNW (300°)5.8 mphClear
11:35 PM41.0 °F32.0 °F70 %29.94 in10.0 miNW (320°)6.9 mphClear
11:55 PM41.0 °F30.2 °F65 %29.94 in10.0 miWNW (300°)5.8 mphClear
Hourly data recorded from K9A1, located miles away from Monticello, Georgia







STORIES FROM OUR PARTNERS